{"data":{"norad_id":60149,"epoch":"2026-09-21T21:30:58.846752Z","epoch_age_seconds":60735,"freshness":"FRESH","line1":"1 60149U 24120Q   26264.89651443 -.00000839  00000+0 -13704-4 0  9999","line2":"2 60149  53.1598 125.2064 0001331  89.7352 270.3803 15.34392213126549","mean_motion":15.34392213,"eccentricity":0.0001331,"inclination_deg":53.1598,"raan_deg":125.2064,"arg_perigee_deg":89.7352,"mean_anomaly_deg":270.3803,"bstar":-1.3704e-5,"rev_number":12654,"period_min":93.848234356231,"perigee_km":461.81586599349,"apogee_km":463.63690382655,"semimajor_km":6840.86338491,"source":"CELESTRAK","updated_at":"2026-09-22T09:00:49.179585Z"}}